COSMOS 970 DEB, 65014

Orbit data source: Space-Track

COSMOS 970 DEB, 65014 is space debris in LEO originally from a launch on Wed, 21 Dec 1977 UTC launched from the Tyuratam Missile And Space Complex (TTMTR). Debris objects in space refer to the collection of defunct objects orbiting the Earth. Examples of debris include non-operational satellites, rocket bodies, and fragments generated from explosions, collisions, or faulty payload assembly.

Loading next visibility...
Identifier
65014, 1977-121EB
Orbit
LEO
Country
Flag of CISCIS
Related business
Manufacturer
Unknown
Mission
Spacecraft
Bus & Motor
Unknown
Mass
Unknown
Launch date (UTC)
1977-12-21 (48 years ago)
Launch vehicle
Unknown
Launch site
Tyuratam Missile And Space Complex (TTMTR)
Object type
Payload
Rocket body
Debris
Shape & HBR
Unknown shape, 0.1 m
Radar Cross Section
Small (<0.1 m²)

Expand to show TLE details & history
Last TLE update: 3 weeks ago

TLE from 3 weeks ago
0 COSMOS 970 DEB
1 65014U 77121EB  26148.40623674  .00000102  00000-0  26584-3 0  9998
2 65014  65.8148 190.1490 0051968 133.4150 227.1245 13.52691578572475
Epoch: 2026-05-28T09:44Z
TLE epoch observation values (Epoch: 2026-05-28T09:44:58.854Z)
Latitude
0.00003°
Longitude
157.95236°
Altitude
1,090.754 km
Speed
7.294 km/s
True Right ascension
12h 40m 35s
True Declination
0° 00' 00"
Sunlit
Object was in full shadow at epoch
Visualization orbit readout
Latitude
Unknown
Longitude
Unknown
Altitude
Unknown
Speed
Unknown
Apparent Right ascension
Unknown
Apparent Declination
Unknown
Sunlit
N/A
Visualization observer readout
Local Sidereal Time
07:11:58
Azimuth
Unknown
Elevation
Unknown
Doppler factor
Unknown
Orbital elements
Apogee altitude
1,099.567 km
Perigee altitude
1,022.248 km
Semi-major axis
7,439.044 km
Eccentricity
0.0052
Inclination
65.8148°
RAAN
190.149°
Arg. of periapsis
133.415°
True anomaly
226.69002°
Mean anomaly
227.1245°
Eccentric anomaly
226.90707°
Mean motion
3.38273 °/min
Orbital period
106.42 mins
BSTAR
0.00026584
Loading maneuver chart data...
Computing Atmospheric mass density...
Loading historical data...
Loading historical data...
Loading historical data...
Loading historical data...
Loading historical data...
Loading historical data...
Loading historical data...

Documentation

Showing up to 5 results
|